When you browse on this site, cookies collect data to enhance your experience and personalize the content and advertising you see.
Visit our Privacy Policy to learn more. By continuing to use the site, you agree to this use of cookies and data.
  • In Latvia
  • List of Countries
  • For 7 days
  • Water Temperature
  • Satellite Maps
  • Weather Map
  • Weather Widgets
  • user-avatar
    Login

    Hourly Weather Ischgl

    Today, 24 May, Friday

    Time Temperature Precipitation Wind Pressure Humidity
    00:00 -2°C° 0 mm 0 mps 571 mmHg 94%
    01:00 0°C° 0 mm 1 mps 571 mmHg 87%
    02:00 -1°C° 0 mm 1 mps 571 mmHg 86%
    03:00 -1°C° 0 mm 1 mps 571 mmHg 85%
    04:00 -1°C° 0 mm 1 mps 571 mmHg 85%
    05:00 0°C° 0 mm 1 mps 571 mmHg 84%
    06:00 +2°C° 0 mm 1 mps 572 mmHg 83%
    07:00 +3°C° 0 mm 0 mps 573 mmHg 81%
    08:00 +5°C° 0 mm 1 mps 573 mmHg 77%
    09:00 +6°C° 0 mm 1 mps 574 mmHg 73%
    10:00 +7°C° 0 mm 1 mps 574 mmHg 69%
    11:00 +8°C° 0 mm 1 mps 574 mmHg 67%
    12:00 +9°C° 0 mm 1 mps 574 mmHg 65%
    13:00 +8°C° 0 mm 2 mps 574 mmHg 65%
    14:00 +8°C° 0.1 mm 2 mps 574 mmHg 66%
    15:00 +8°C° 0.1 mm 2 mps 574 mmHg 67%
    16:00 +8°C° 0.1 mm 2 mps 574 mmHg 68%
    17:00 +6°C° 0.2 mm 2 mps 573 mmHg 74%
    18:00 +5°C° 0.2 mm 2 mps 573 mmHg 80%
    19:00 +5°C° 0.2 mm 1 mps 572 mmHg 86%
    20:00 +4°C° 0.1 mm 1 mps 572 mmHg 89%
    21:00 +3°C° 0.1 mm 1 mps 571 mmHg 92%
    22:00 +2°C° 0.1 mm 1 mps 571 mmHg 95%
    23:00 0°C° 0 mm 0 mps 571 mmHg 94%

    Tomorrow, 25 May, Saturday

    Time Temperature Precipitation Wind Pressure Humidity
    00:00 0°C° 0 mm 0 mps 571 mmHg 94%
    01:00 0°C° 0 mm 0 mps 571 mmHg 93%
    02:00 0°C° 0 mm 0 mps 571 mmHg 93%
    03:00 -1°C° 0 mm 0 mps 570 mmHg 92%
    04:00 0°C° 0 mm 1 mps 570 mmHg 92%
    05:00 +1°C° 0 mm 0 mps 571 mmHg 89%
    06:00 +2°C° 0 mm 0 mps 572 mmHg 86%
    07:00 +4°C° 0 mm 0 mps 573 mmHg 82%
    08:00 +5°C° 0.1 mm 0 mps 573 mmHg 79%
    09:00 +6°C° 0.1 mm 0 mps 574 mmHg 75%
    10:00 +8°C° 0.1 mm 1 mps 575 mmHg 71%
    11:00 +8°C° 0.4 mm 1 mps 575 mmHg 71%
    12:00 +8°C° 0.4 mm 1 mps 575 mmHg 71%
    13:00 +8°C° 0.4 mm 1 mps 575 mmHg 71%
    14:00 +8°C° 0.8 mm 1 mps 574 mmHg 76%
    15:00 +7°C° 0.8 mm 1 mps 574 mmHg 80%
    16:00 +7°C° 0.8 mm 1 mps 573 mmHg 84%
    17:00 +6°C° 0.9 mm 1 mps 573 mmHg 88%
    18:00 +5°C° 0.9 mm 1 mps 573 mmHg 92%
    19:00 +4°C° 0.9 mm 1 mps 573 mmHg 96%
    20:00 +4°C° 1.2 mm 1 mps 573 mmHg 96%
    21:00 +3°C° 1.2 mm 1 mps 573 mmHg 97%
    22:00 +3°C° 1.2 mm 1 mps 573 mmHg 98%
    23:00 +3°C° 1.3 mm 1 mps 573 mmHg 98%

    Day after tomorrow, 26 May, Sunday

    Time Temperature Precipitation Wind Pressure Humidity
    00:00 +3°C° 1.3 mm 1 mps 573 mmHg 98%
    01:00 +3°C° 1.3 mm 1 mps 572 mmHg 98%
    02:00 +2°C° 0.9 mm 1 mps 572 mmHg 98%
    03:00 +2°C° 0.9 mm 1 mps 572 mmHg 97%
    04:00 +2°C° 0.9 mm 1 mps 572 mmHg 97%
    05:00 +3°C° 0.2 mm 1 mps 572 mmHg 96%
    06:00 +3°C° 0.2 mm 1 mps 573 mmHg 95%
    07:00 +3°C° 0.2 mm 1 mps 573 mmHg 94%
    08:00 +4°C° 0.1 mm 1 mps 573 mmHg 90%
    09:00 +5°C° 0.1 mm 1 mps 574 mmHg 87%
    10:00 +6°C° 0.1 mm 1 mps 574 mmHg 83%
    11:00 +7°C° 0.2 mm 1 mps 574 mmHg 82%
    12:00 +7°C° 0.2 mm 1 mps 574 mmHg 81%
    13:00 +7°C° 0.2 mm 1 mps 574 mmHg 81%
    14:00 +7°C° 0.2 mm 2 mps 574 mmHg 80%
    15:00 +7°C° 0.2 mm 2 mps 574 mmHg 80%
    16:00 +7°C° 0.2 mm 2 mps 574 mmHg 80%
    17:00 +6°C° 0.3 mm 2 mps 574 mmHg 84%
    18:00 +7°C° 0.3 mm 1 mps 574 mmHg 88%
    19:00 +6°C° 0.3 mm 1 mps 574 mmHg 91%
    20:00 +6°C° 0.2 mm 1 mps 574 mmHg 93%
    21:00 +5°C° 0.2 mm 1 mps 573 mmHg 95%
    22:00 +4°C° 0.2 mm 1 mps 573 mmHg 97%
    23:00 +4°C° 0.1 mm 1 mps 573 mmHg 97%

    27 May, Monday

    Time Temperature Precipitation Wind Pressure Humidity
    00:00 +4°C° 0.1 mm 1 mps 572 mmHg 98%
    01:00 +2°C° 0.1 mm 0 mps 572 mmHg 98%
    02:00 +2°C° 0 mm 0 mps 572 mmHg 97%
    03:00 +2°C° 0 mm 0 mps 572 mmHg 97%
    04:00 +3°C° 0 mm 1 mps 571 mmHg 97%
    05:00 +4°C° 0 mm 1 mps 572 mmHg 95%
    06:00 +5°C° 0 mm 1 mps 572 mmHg 92%
    07:00 +5°C° 0 mm 1 mps 572 mmHg 90%
    08:00 +6°C° 0.1 mm 1 mps 573 mmHg 86%
    09:00 +7°C° 0.1 mm 1 mps 573 mmHg 83%
    10:00 +8°C° 0.1 mm 1 mps 573 mmHg 79%
    11:00 +7°C° 0.2 mm 2 mps 573 mmHg 78%
    12:00 +8°C° 0.2 mm 2 mps 573 mmHg 76%
    13:00 +8°C° 0.2 mm 2 mps 573 mmHg 75%
    14:00 +8°C° 0.3 mm 2 mps 573 mmHg 77%
    15:00 +8°C° 0.3 mm 2 mps 573 mmHg 79%
    16:00 +8°C° 0.3 mm 2 mps 572 mmHg 81%
    17:00 +7°C° 0.4 mm 2 mps 572 mmHg 85%
    18:00 +7°C° 0.4 mm 2 mps 572 mmHg 89%
    19:00 +6°C° 0.4 mm 2 mps 571 mmHg 92%
    20:00 +5°C° 0.7 mm 2 mps 571 mmHg 94%
    21:00 +5°C° 0.7 mm 2 mps 571 mmHg 96%
    22:00 +4°C° 0.7 mm 2 mps 571 mmHg 97%
    23:00 +4°C° 0.6 mm 2 mps 570 mmHg 97%

    28 May, Tuesday

    Time Temperature Precipitation Wind Pressure Humidity
    00:00 +4°C° 0.6 mm 2 mps 570 mmHg 97%
    01:00 +4°C° 0.6 mm 2 mps 570 mmHg 97%
    02:00 +4°C° 0.9 mm 1 mps 569 mmHg 97%
    03:00 +4°C° 0.9 mm 1 mps 569 mmHg 97%
    04:00 +4°C° 0.9 mm 1 mps 568 mmHg 97%
    05:00 +4°C° 2 mm 1 mps 568 mmHg 97%
    06:00 +4°C° 2 mm 1 mps 568 mmHg 97%
    07:00 +4°C° 2 mm 1 mps 568 mmHg 97%
    08:00 +3°C° 2.3 mm 2 mps 568 mmHg 97%
    09:00 +3°C° 2.3 mm 2 mps 568 mmHg 97%
    10:00 +2°C° 2.3 mm 2 mps 568 mmHg 97%
    11:00 +2°C° 1.4 mm 2 mps 568 mmHg 97%
    12:00 +2°C° 1.4 mm 2 mps 568 mmHg 97%
    13:00 +2°C° 1.4 mm 2 mps 568 mmHg 96%
    14:00 +1°C° 1 mm 3 mps 568 mmHg 96%
    15:00 0°C° 1 mm 3 mps 568 mmHg 96%
    16:00 0°C° 1 mm 3 mps 568 mmHg 96%
    17:00 0°C° 1.2 mm 3 mps 568 mmHg 96%
    18:00 -1°C° 1.2 mm 3 mps 568 mmHg 96%
    19:00 -2°C° 1.2 mm 3 mps 568 mmHg 96%
    20:00 -2°C° 1.4 mm 3 mps 568 mmHg 97%
    21:00 -2°C° 1.4 mm 3 mps 568 mmHg 97%
    22:00 -4°C° 1.4 mm 3 mps 568 mmHg 97%
    23:00 -4°C° 2.4 mm 3 mps 568 mmHg 97%

    29 May, Wednesday

    Time Temperature Precipitation Wind Pressure Humidity
    00:00 -4°C° 2.4 mm 3 mps 568 mmHg 97%
    01:00 -4°C° 2.4 mm 3 mps 568 mmHg 97%
    02:00 -5°C° 2 mm 3 mps 568 mmHg 97%
    03:00 -4°C° 2 mm 2 mps 568 mmHg 97%
    04:00 -4°C° 2 mm 2 mps 568 mmHg 97%
    05:00 -5°C° 1.1 mm 3 mps 568 mmHg 97%
    06:00 -5°C° 1.1 mm 3 mps 569 mmHg 96%
    07:00 -4°C° 1.1 mm 3 mps 569 mmHg 96%
    08:00 -4°C° 0.6 mm 3 mps 570 mmHg 96%
    09:00 -4°C° 0.6 mm 3 mps 570 mmHg 97%
    10:00 -4°C° 0.6 mm 3 mps 571 mmHg 98%
    11:00 -2°C° 0.4 mm 3 mps 571 mmHg 98%
    12:00 -2°C° 0.4 mm 3 mps 571 mmHg 98%
    13:00 -2°C° 0.4 mm 3 mps 572 mmHg 98%
    14:00 -2°C° 0.3 mm 3 mps 572 mmHg 98%
    15:00 -2°C° 0.3 mm 3 mps 572 mmHg 97%
    16:00 -2°C° 0.3 mm 3 mps 572 mmHg 97%
    17:00 -2°C° 0.3 mm 3 mps 572 mmHg 97%
    18:00 -4°C° 0.3 mm 3 mps 572 mmHg 97%
    19:00 -4°C° 0.3 mm 3 mps 573 mmHg 96%
    20:00 -4°C° 0.1 mm 2 mps 573 mmHg 97%
    21:00 -4°C° 0.1 mm 2 mps 573 mmHg 97%
    22:00 -5°C° 0.1 mm 2 mps 573 mmHg 97%
    23:00 -5°C° 0.1 mm 2 mps 573 mmHg 97%
    Show more